Regional Weather Roundup
Issued by NWS

Home | Current Version | Previous Version | Graphics & Text | Print | Product List | Glossary On
Versions: 1 2 3 4 5 6 7 8 9 10 11 12 13 14 15 16 17 18 19 20 21 22 23 24 25 26 27 28 29 30 31 32 33 34 35 36 37 38 39 40 41 42 43 44 45 46 47 48 49 50
000
ASUS43 KMKX 050900
RWRWI

WISCONSIN REGIONAL WEATHER ROUNDUP
NATIONAL WEATHER SERVICE MILWAUKEE/SULLIVAN WI
300 AM CST MON DEC 05 2016

NOTE: "FAIR" INDICATES FEW OR NO CLOUDS BELOW 12,000 FEET WITH NO
SIGNIFICANT WEATHER AND/OR OBSTRUCTIONS TO VISIBILITY.

WIZ001-002-006>008-014>016-023>028-051000-
NORTHWEST WISCONSIN

CITY           SKY/WX    TMP DP  RH WIND       PRES   REMARKS
SUPERIOR ARPT  CLOUDY    34  30  85 W8        29.75R WCI  27
ASHLAND        CLOUDY    34  29  82 SW10      29.75R WCI  26
HAYWARD        CLOUDY    34  29  82 VRB7      29.76R WCI  28
SIREN          CLEAR     32  30  92 SW8       29.78R WCI  25
CUMBERLAND     PTCLDY    28  27  93 SW5       29.78R WCI  23
RICE LAKE      PTCLDY    32  29  87 SW5       29.81R WCI  27
CHETEK         PTCLDY    31  29  93 CALM      29.80R
LADYSMITH      CLOUDY    33  30  89 SW9       29.79R WCI  26
EAU CLAIRE     NOT AVBL
MENOMONIE      CLEAR     31  29  94 S6        29.83R WCI  25
NEW RICHMOND   CLEAR     29  28  99 S5        29.81R WCI  24
OSCEOLA        CLEAR     31  31 100 SW3       29.83R
$$

WIZ003>005-009-010-017-018-051000-
NORTH CENTRAL WISCONSIN

CITY           SKY/WX    TMP DP  RH WIND       PRES   REMARKS
MANITOWISH WTR CLOUDY    31  31 100 SW6       29.71R WCI  25
ARBOR VITAE    MIX PCPN  33  31  92 W9        29.72R WCI  25
WOODRUFF       MIX PCPN  33  31  92 W9        29.72R WCI  25
RHINELANDER    CLOUDY    33  30  88 W14       29.74R WCI  23
EAGLE RIVER    CLOUDY    32  31  97 W8        29.71R WCI  25
LAND O LAKES   CLOUDY    32  31  95 W7        29.71R WCI  26
PHILLIPS       CLOUDY    31  30  94 SW7       29.75R WCI  25
TOMAHAWK       CLOUDY    32  28  85 W6        29.76R WCI  26
MEDFORD        CLOUDY    32  28  87 W6        29.78R WCI  26
MERRILL        CLOUDY    33  30  88 W12G20    29.79R WCI  24
$$

WIZ029-030-035-036-043>047-051000-
CENTRAL WISCONSIN

CITY           SKY/WX    TMP DP  RH WIND       PRES   REMARKS
WAUSAU         CLOUDY    34  29  82 W14       29.79R WCI  25
MOSINEE        CLOUDY    32  32 100 W9        29.81R WCI  24
MARSHFIELD     CLOUDY    33  31  92 W10       29.81R WCI  25
STEVENS POINT  CLOUDY    32  32 100 SW8       29.83R WCI  25
WAUPACA        CLOUDY    35  32  89 SW8       29.85R WCI  29
WAUTOMA        CLOUDY    33  32  96 SW10      29.86S WCI  25
WISC RAPIDS    CLOUDY    34  33  96 SW7       29.85R WCI  28
CAMP DOUGLAS   CLOUDY    34  32  93 SW12      29.86S WCI  25
$$

WIZ011>013-019>022-031-037>040-048>050-051000-
NORTHEAST WISCONSIN

CITY           SKY/WX    TMP DP  RH WIND       PRES   REMARKS
ANTIGO         CLOUDY    32  30  93 W13       29.76R WCI  22
SHAWANO        CLOUDY    34  32  92 SW3       29.81R
OCONTO         CLOUDY    33  31  94 SW7       29.81R WCI  26
STURGEON BAY   CLOUDY    33  31  92 SW9       29.82R WCI  25
GREEN BAY      CLOUDY    35  33  92 SW12      29.84R WCI  27
MANITOWOC      NOT AVBL
APPLETON       CLOUDY    32  32 100 SW16      29.83R WCI  21
CLINTONVILLE   CLOUDY    34  32  93 SW9       29.82R WCI  26
OSHKOSH        CLOUDY    34  30  85 SW9       29.85R WCI  27
$$

WIZ032>034-041-042-053>061-051000-
SOUTHWEST WISCONSIN

CITY           SKY/WX    TMP DP  RH WIND       PRES   REMARKS
LA CROSSE      CLOUDY    36  33  89 SW8       29.88R WCI  30
SPARTA         CLOUDY    34  33  95 SW3       29.87R
VIROQUA        CLOUDY    32  32 100 SW10      29.86S WCI  24
BOSCOBEL       CLOUDY    35  33  92 S3        29.92R FOG
PRAIRIE DU CHI CLOUDY    35  32  90 SW6       29.91S FOG     WCI  30
PLATTEVILLE    CLOUDY    33  33 100 SW8       29.92S WCI  26
$$

WIZ056-057-062-063-064-067-068-051000-
SOUTH CENTRAL WISCONSIN

CITY           SKY/WX    TMP DP  RH WIND       PRES   REMARKS
REEDSBURG      CLOUDY    33  32  99 SW8       29.88S WCI  25
BARABOO/DELLS  CLOUDY    32  31  95 W10       29.88R WCI  24
LONE ROCK      CLOUDY    34  31  88 SW5       29.92R WCI  30
MINERAL POINT  FOG       34  34 100 SW8       29.90S VSB 1   WCI  27
MADISON        CLOUDY    33  30  88 VRB7      29.92R WCI  27
MIDDLETON      CLOUDY    34  33  96 W14G20    29.91R WCI  25
WATERTOWN      CLOUDY    32  32 100 W6        29.90R WCI  27
MONROE         CLOUDY    32  32 100 W10       29.92R FOG     WCI  24
JANESVILLE     CLOUDY    34  32  93 W8        29.94R WCI  27
$$

WIZ051-052-058>065-066-070>072-051000-
SOUTHEAST WISCONSIN

CITY           SKY/WX    TMP DP  RH WIND       PRES   REMARKS
MILWAUKEE      CLOUDY    35  30  82 W10G20    29.92R WCI  27
WAUKESHA       CLOUDY    32  30  93 W7        29.91S WCI  26
MILWAUKEE/TIMM CLOUDY    32  30  93 W9        29.91S WCI  24
RACINE         CLOUDY    34  30  85 W10G18    29.94R WCI  26
BURLINGTON     CLOUDY    32  31  94 W3        29.93R
KENOSHA        CLOUDY    33  31  92 W12       29.93R WCI  24
FOND DU LAC    CLOUDY    34  29  82 SW13      29.88R WCI  25
SHEBOYGAN      CLOUDY    34  30  85 W10       29.87R WCI  26
WEST BEND      CLOUDY    32  32 100 W7        29.88S WCI  26
JUNEAU         CLOUDY    32  31  94 SW14      29.91R WCI  22
$$

LSZ147-162-051000-
LAKE SUPERIOR

STATION/POSITION TIME  TEMP    WIND        PRES    WAVE
                       AIR SEA DIR/SP/G            HT/PER
                 (UTC) (F)     (DEG/KT/KT) (MB)    (FT/S)
DEVILS ISLAND    0800   36     250/ 25/ 29 1005.5R
PORT WING        0830   35     230/  9/ 16 1007.1R
SAXON HARBOR     0840   36     210/  7/ 12 1007.1R
$$

LMZ867-665-643>646-051000-
LAKE MICHIGAN

STATION/POSITION TIME  TEMP    WIND        PRES    WAVE
                       AIR SEA DIR/SP/G            HT/PER
                 (UTC) (F)     (DEG/KT/KT) (MB)    (FT/S)
CHAMBERS ISLAND  0840   35     220/  9/ 18 1008.1R
NORTHPORT PIER   0840   35     240/  4/ 11 1008.5R
SISTER BAY       0808   36     260/ 18/ 21   N/A
ALGOMA LAKESHORE 0836          260/  8/ 13   N/A
KEWAUNEE LAKESHO 0830   34     250/  9/ 12 1009.6R
SHEBOYGAN LAKESH 0800   34     240/ 12/ 15 1011.6R
PORT WASHINGTON  0830   34     250/  9/ 14 1013.2R
MILWAUKEE LAKESH 0830   35     270/ 13/ 19   N/A
KENOSHA   LAKESH 0800   34     250/  9/ 15 1013.5
$$

TC  - TEMPERATURE IN CELSIUS
VSB - VISIBILITY IN STATUTE MILES
WCI - WIND CHILL INDEX
HX  - HEAT INDEX




USA.gov is the U.S. government's official web portal to all federal, state and local government web resources and services.